Time,TemperatureF,DewpointF,PressureIn,WindDirection,WindDirectionDegrees,WindSpeedMPH,WindSpeedGustMPH,Humidity,HourlyPrecipIn,Conditions,Clouds,dailyrainin,SolarRadiationWatts/m^2,SoftwareType,DateUTC
2013-04-19 00:12:00,48.8,44.0,30.20,SSW,192,0.0,0.0,83,0.00,,,0.00,0,weatherlink.com 1.10,2013-04-19 07:12:00,
2013-04-19 00:27:00,48.2,44.0,30.20,SSW,192,0.0,0.0,85,0.00,,,0.00,0,weatherlink.com 1.10,2013-04-19 07:27:00,
2013-04-19 00:42:00,47.8,44.0,30.20,SSW,192,0.0,0.0,87,0.00,,,0.00,0,weatherlink.com 1.10,2013-04-19 07:42:00,
2013-04-19 00:57:00,47.9,44.0,30.20,SSW,192,0.0,0.0,87,0.00,,,0.00,0,weatherlink.com 1.10,2013-04-19 07:57:00,
2013-04-19 01:12:00,47.9,44.0,30.20,SSW,192,0.0,0.0,87,0.00,,,0.00,0,weatherlink.com 1.10,2013-04-19 08:12:00,
2013-04-19 01:27:00,47.5,44.0,30.20,SSW,192,0.0,0.0,87,0.00,,,0.00,0,weatherlink.com 1.10,2013-04-19 08:27:00,
2013-04-19 01:42:00,46.9,44.0,30.20,SSW,192,0.0,0.0,89,0.00,,,0.00,0,weatherlink.com 1.10,2013-04-19 08:42:00,
2013-04-19 01:57:00,46.8,44.0,30.20,SSW,192,0.0,0.0,89,0.00,,,0.00,0,weatherlink.com 1.10,2013-04-19 08:57:00,
2013-04-19 02:12:00,47.0,44.0,30.20,SSW,192,0.0,0.0,90,0.00,,,0.00,0,weatherlink.com 1.10,2013-04-19 09:12:00,
2013-04-19 02:27:00,47.6,45.0,30.20,SSW,192,0.0,0.0,89,0.00,,,0.00,0,weatherlink.com 1.10,2013-04-19 09:27:00,
2013-04-19 02:42:00,46.7,43.0,30.20,SSW,192,0.0,0.0,88,0.00,,,0.00,0,weatherlink.com 1.10,2013-04-19 09:42:00,
2013-04-19 02:57:00,46.7,44.0,30.19,SSW,192,0.0,0.0,90,0.00,,,0.00,0,weatherlink.com 1.10,2013-04-19 09:57:00,
2013-04-19 03:12:00,46.2,44.0,30.19,SSW,192,0.0,0.0,90,0.00,,,0.00,0,weatherlink.com 1.10,2013-04-19 10:12:00,
2013-04-19 03:27:00,46.2,44.0,30.19,SSW,192,0.0,0.0,91,0.00,,,0.00,0,weatherlink.com 1.10,2013-04-19 10:27:00,
2013-04-19 03:42:00,45.9,44.0,30.20,SSW,192,0.0,0.0,91,0.00,,,0.00,0,weatherlink.com 1.10,2013-04-19 10:42:00,
2013-04-19 03:57:00,45.9,44.0,30.20,SSW,192,0.0,0.0,91,0.00,,,0.00,0,weatherlink.com 1.10,2013-04-19 10:57:00,
2013-04-19 04:12:00,45.3,43.0,30.20,SSW,192,0.0,0.0,91,0.00,,,0.00,0,weatherlink.com 1.10,2013-04-19 11:12:00,
2013-04-19 04:27:00,44.9,43.0,30.20,SSW,192,0.0,0.0,91,0.00,,,0.00,0,weatherlink.com 1.10,2013-04-19 11:27:00,
2013-04-19 04:42:00,44.9,43.0,30.19,SSW,192,0.0,0.0,92,0.00,,,0.00,0,weatherlink.com 1.10,2013-04-19 11:42:00,
2013-04-19 04:57:00,44.8,43.0,30.19,SSW,192,0.0,0.0,92,0.00,,,0.00,0,weatherlink.com 1.10,2013-04-19 11:57:00,
2013-04-19 05:12:00,45.4,43.0,30.19,SSW,192,0.0,0.0,92,0.00,,,0.00,0,weatherlink.com 1.10,2013-04-19 12:12:00,
2013-04-19 05:27:00,44.8,43.0,30.20,SSW,192,0.0,0.0,92,0.00,,,0.00,0,weatherlink.com 1.10,2013-04-19 12:27:00,
2013-04-19 05:42:00,44.9,43.0,30.20,SSW,192,0.0,0.0,93,0.00,,,0.00,0,weatherlink.com 1.10,2013-04-19 12:42:00,
2013-04-19 05:57:00,45.0,43.0,30.20,SSW,192,0.0,0.0,93,0.00,,,0.00,0,weatherlink.com 1.10,2013-04-19 12:57:00,
2013-04-19 06:12:00,44.8,43.0,30.20,SSW,192,0.0,0.0,92,0.00,,,0.00,0,weatherlink.com 1.10,2013-04-19 13:12:00,
2013-04-19 06:27:00,44.7,43.0,30.20,SSW,192,0.0,0.0,93,0.00,,,0.00,0,weatherlink.com 1.10,2013-04-19 13:27:00,
2013-04-19 06:42:00,44.8,43.0,30.20,SSW,192,0.0,0.0,92,0.00,,,0.00,9,weatherlink.com 1.10,2013-04-19 13:42:00,
2013-04-19 06:57:00,44.7,43.0,30.20,SSW,192,0.0,0.0,93,0.00,,,0.00,16,weatherlink.com 1.10,2013-04-19 13:57:00,
2013-04-19 07:12:00,44.7,43.0,30.21,SSW,192,0.0,0.0,93,0.00,,,0.00,25,weatherlink.com 1.10,2013-04-19 14:12:00,
2013-04-19 07:27:00,44.8,43.0,30.21,SSW,192,0.0,1.0,93,0.00,,,0.00,30,weatherlink.com 1.10,2013-04-19 14:27:00,
2013-04-19 07:42:00,45.3,43.0,30.21,South,186,0.0,0.0,93,0.00,,,0.00,37,weatherlink.com 1.10,2013-04-19 14:42:00,
2013-04-19 07:57:00,46.1,44.0,30.21,South,187,0.0,0.0,93,0.00,,,0.00,53,weatherlink.com 1.10,2013-04-19 14:57:00,
2013-04-19 08:12:00,48.9,47.0,30.22,South,187,0.0,0.0,94,0.00,,,0.00,250,weatherlink.com 1.10,2013-04-19 15:12:00,
2013-04-19 08:27:00,52.9,50.0,30.23,South,187,0.0,0.0,91,0.00,,,0.00,320,weatherlink.com 1.10,2013-04-19 15:27:00,
2013-04-19 08:42:00,55.5,50.0,30.22,SE,137,0.0,1.0,83,0.00,,,0.00,329,weatherlink.com 1.10,2013-04-19 15:42:00,
2013-04-19 08:58:00,58.2,51.0,30.22,ESE,111,1.0,3.0,77,0.00,,,0.00,459,weatherlink.com 1.10,2013-04-19 15:58:00,
2013-04-19 09:13:00,56.8,50.0,30.22,ENE,60,1.0,4.0,79,0.00,,,0.00,204,weatherlink.com 1.10,2013-04-19 16:13:00,
2013-04-19 09:28:00,58.3,50.0,30.23,NE,45,0.0,4.0,75,0.00,,,0.00,213,weatherlink.com 1.10,2013-04-19 16:28:00,
2013-04-19 09:43:00,59.7,52.0,30.22,NE,46,0.0,1.0,75,0.00,,,0.00,584,weatherlink.com 1.10,2013-04-19 16:43:00,
2013-04-19 09:58:00,61.4,51.0,30.22,NE,44,0.0,3.0,69,0.00,,,0.00,615,weatherlink.com 1.10,2013-04-19 16:58:00,
2013-04-19 10:13:00,63.2,52.0,30.22,NE,36,0.0,4.0,67,0.00,,,0.00,640,weatherlink.com 1.10,2013-04-19 17:13:00,
2013-04-19 10:28:00,64.7,54.0,30.21,East,91,3.0,5.0,69,0.00,,,0.00,680,weatherlink.com 1.10,2013-04-19 17:28:00,
2013-04-19 10:43:00,65.9,54.0,30.21,North,5,0.0,4.0,65,0.00,,,0.00,733,weatherlink.com 1.10,2013-04-19 17:43:00,
2013-04-19 10:58:00,67.3,54.0,30.21,ENE,68,4.0,5.0,63,0.00,,,0.00,766,weatherlink.com 1.10,2013-04-19 17:58:00,
2013-04-19 11:13:00,67.7,54.0,30.20,NE,49,3.0,7.0,62,0.00,,,0.00,784,weatherlink.com 1.10,2013-04-19 18:13:00,
2013-04-19 11:28:00,69.0,54.0,30.20,NE,35,5.0,9.0,59,0.00,,,0.00,821,weatherlink.com 1.10,2013-04-19 18:28:00,
2013-04-19 11:43:00,70.2,55.0,30.20,NNE,13,2.0,10.0,59,0.00,,,0.00,844,weatherlink.com 1.10,2013-04-19 18:43:00,
2013-04-19 11:58:00,70.3,54.0,30.20,SE,137,0.0,8.0,56,0.00,,,0.00,865,weatherlink.com 1.10,2013-04-19 18:58:00,
2013-04-19 12:13:00,70.7,55.0,30.19,SSW,211,0.0,7.0,58,0.00,,,0.00,884,weatherlink.com 1.10,2013-04-19 19:13:00,
2013-04-19 12:28:00,70.8,56.0,30.19,SSW,192,7.0,7.0,59,0.00,,,0.00,896,weatherlink.com 1.10,2013-04-19 19:28:00,
2013-04-19 12:43:00,71.3,57.0,30.19,SSW,201,5.0,9.0,62,0.00,,,0.00,900,weatherlink.com 1.10,2013-04-19 19:43:00,
2013-04-19 12:58:00,71.8,57.0,30.18,West,265,6.0,9.0,61,0.00,,,0.00,912,weatherlink.com 1.10,2013-04-19 19:58:00,
2013-04-19 13:13:00,71.7,56.0,30.18,SSE,159,0.0,9.0,58,0.00,,,0.00,905,weatherlink.com 1.10,2013-04-19 20:13:00,
2013-04-19 13:28:00,73.2,57.0,30.16,WSW,246,1.0,6.0,58,0.00,,,0.00,914,weatherlink.com 1.10,2013-04-19 20:28:00,
2013-04-19 13:44:00,72.4,56.0,30.16,South,184,4.0,11.0,56,0.00,,,0.00,909,weatherlink.com 1.10,2013-04-19 20:44:00,
2013-04-19 13:59:00,72.8,56.0,30.15,WSW,240,5.0,10.0,55,0.00,,,0.00,902,weatherlink.com 1.10,2013-04-19 20:59:00,
2013-04-19 14:14:00,73.2,56.0,30.15,SE,140,6.0,11.0,55,0.00,,,0.00,889,weatherlink.com 1.10,2013-04-19 21:14:00,
2013-04-19 14:29:00,72.8,56.0,30.14,South,172,3.0,10.0,56,0.00,,,0.00,868,weatherlink.com 1.10,2013-04-19 21:29:00,
2013-04-19 14:44:00,73.6,57.0,30.13,South,187,0.0,8.0,56,0.00,,,0.00,851,weatherlink.com 1.10,2013-04-19 21:44:00,
2013-04-19 14:59:00,73.4,57.0,30.12,SE,126,7.0,11.0,56,0.00,,,0.00,823,weatherlink.com 1.10,2013-04-19 21:59:00,
2013-04-19 15:14:00,78.6,53.0,30.11,South,185,1.0,10.0,41,0.00,,,0.00,803,weatherlink.com 1.10,2013-04-19 22:14:00,
2013-04-19 15:29:00,78.8,54.0,30.10,SE,143,6.0,8.0,43,0.00,,,0.00,770,weatherlink.com 1.10,2013-04-19 22:29:00,
2013-04-19 15:44:00,80.4,57.0,30.10,SSW,198,4.0,10.0,45,0.00,,,0.00,737,weatherlink.com 1.10,2013-04-19 22:44:00,
2013-04-19 15:59:00,79.7,61.0,30.09,ESE,113,1.0,8.0,53,0.00,,,0.00,707,weatherlink.com 1.10,2013-04-19 22:59:00,
2013-04-19 16:14:00,77.9,57.0,30.09,North,11,4.0,13.0,49,0.00,,,0.00,663,weatherlink.com 1.10,2013-04-19 23:14:00,
2013-04-19 16:29:00,78.7,55.0,30.09,SE,138,5.0,6.0,44,0.00,,,0.00,626,weatherlink.com 1.10,2013-04-19 23:29:00,
2013-04-19 16:44:00,80.0,46.0,30.08,West,259,8.0,16.0,30,0.00,,,0.00,585,weatherlink.com 1.10,2013-04-19 23:44:00,
2013-04-19 16:59:00,80.7,47.0,30.08,WNW,296,3.0,11.0,30,0.00,,,0.00,540,weatherlink.com 1.10,2013-04-19 23:59:00,
2013-04-19 17:14:00,80.3,46.0,30.07,NW,323,4.0,15.0,30,0.00,,,0.00,490,weatherlink.com 1.10,2013-04-20 00:14:00,
2013-04-19 17:29:00,79.5,45.0,30.08,North,360,8.0,16.0,30,0.00,,,0.00,441,weatherlink.com 1.10,2013-04-20 00:29:00,
2013-04-19 17:44:00,79.1,46.0,30.08,North,349,6.0,17.0,31,0.00,,,0.00,390,weatherlink.com 1.10,2013-04-20 00:44:00,
2013-04-19 17:59:00,78.9,46.0,30.08,WNW,302,8.0,18.0,31,0.00,,,0.00,339,weatherlink.com 1.10,2013-04-20 00:59:00,
2013-04-19 18:14:00,78.0,45.0,30.08,West,277,7.0,19.0,31,0.00,,,0.00,287,weatherlink.com 1.10,2013-04-20 01:14:00,
2013-04-19 18:29:00,77.2,45.0,30.08,WNW,299,5.0,19.0,32,0.00,,,0.00,227,weatherlink.com 1.10,2013-04-20 01:29:00,
2013-04-19 18:44:00,76.6,45.0,30.07,West,266,11.0,13.0,33,0.00,,,0.00,165,weatherlink.com 1.10,2013-04-20 01:44:00,
2013-04-19 18:59:00,75.7,46.0,30.07,WNW,302,7.0,13.0,35,0.00,,,0.00,105,weatherlink.com 1.10,2013-04-20 01:59:00,
2013-04-19 19:14:00,74.6,46.0,30.06,WNW,292,5.0,13.0,36,0.00,,,0.00,56,weatherlink.com 1.10,2013-04-20 02:14:00,
2013-04-19 19:29:00,73.2,46.0,30.07,NW,323,3.0,13.0,38,0.00,,,0.00,23,weatherlink.com 1.10,2013-04-20 02:29:00,
2013-04-19 19:44:00,71.6,45.0,30.07,WNW,286,7.0,13.0,39,0.00,,,0.00,9,weatherlink.com 1.10,2013-04-20 02:44:00,
2013-04-19 19:59:00,70.7,45.0,30.06,West,260,5.0,13.0,40,0.00,,,0.00,0,weatherlink.com 1.10,2013-04-20 02:59:00,
2013-04-19 20:14:00,69.9,46.0,30.07,NW,325,1.0,13.0,42,0.00,,,0.00,0,weatherlink.com 1.10,2013-04-20 03:14:00,
2013-04-19 20:29:00,69.0,45.0,30.08,WNW,297,0.0,5.0,43,0.00,,,0.00,0,weatherlink.com 1.10,2013-04-20 03:29:00,
2013-04-19 20:44:00,68.1,46.0,30.08,NNW,329,0.0,5.0,45,0.00,,,0.00,0,weatherlink.com 1.10,2013-04-20 03:44:00,
2013-04-19 20:59:00,67.4,45.0,30.08,NW,309,0.0,8.0,45,0.00,,,0.00,0,weatherlink.com 1.10,2013-04-20 03:59:00,
2013-04-19 21:14:00,66.4,45.0,30.08,WNW,296,0.0,12.0,47,0.00,,,0.00,0,weatherlink.com 1.10,2013-04-20 04:14:00,
2013-04-19 21:29:00,65.8,45.0,30.09,NW,323,3.0,10.0,48,0.00,,,0.00,0,weatherlink.com 1.10,2013-04-20 04:29:00,
2013-04-19 21:44:00,65.1,45.0,30.08,West,281,0.0,7.0,49,0.00,,,0.00,0,weatherlink.com 1.10,2013-04-20 04:44:00,
2013-04-19 21:59:00,64.4,45.0,30.09,WSW,250,0.0,8.0,49,0.00,,,0.00,0,weatherlink.com 1.10,2013-04-20 04:59:00,
2013-04-19 22:14:00,64.5,45.0,30.09,North,350,1.0,5.0,49,0.00,,,0.00,0,weatherlink.com 1.10,2013-04-20 05:14:00,
2013-04-19 22:29:00,64.1,45.0,30.09,West,259,0.0,7.0,50,0.00,,,0.00,0,weatherlink.com 1.10,2013-04-20 05:29:00,
2013-04-19 22:44:00,63.7,45.0,30.09,ENE,69,3.0,7.0,50,0.00,,,0.00,0,weatherlink.com 1.10,2013-04-20 05:44:00,
2013-04-19 22:59:00,63.2,45.0,30.09,WNW,294,0.0,9.0,51,0.00,,,0.00,0,weatherlink.com 1.10,2013-04-20 05:59:00,
2013-04-19 23:14:00,61.2,45.0,30.09,WSW,250,0.0,5.0,55,0.00,,,0.00,0,weatherlink.com 1.10,2013-04-20 06:14:00,
2013-04-19 23:29:00,61.2,44.0,30.09,SSW,211,1.0,5.0,54,0.00,,,0.00,0,weatherlink.com 1.10,2013-04-20 06:29:00,
2013-04-19 23:44:00,60.9,44.0,30.09,West,263,0.0,6.0,55,0.00,,,0.00,0,weatherlink.com 1.10,2013-04-20 06:44:00,
2013-04-19 23:59:00,60.2,44.0,30.09,West,263,0.0,3.0,55,0.00,,,0.00,0,weatherlink.com 1.10,2013-04-20 06:59:00,